Dewpoint
69 71 76 76 76 76 77 77 77 75 75 75 75 75 75 74 74 74 74 75 75 75 74 75 74 75 74 74 73 73 73 74 74 73 75 74 75 75 75 75 74 70 76
68 70 76 77 77 77 76 76 76 75 74 75 75 75 74 75 75 75 75 74 74 74 74 74 74 74 74 73 74 74 72 72 72 72 74 75 75 75 75 74 73 72 75
67 70 72 77 77 76 76 76 76 75 74 75 75 75 74 74 74 74 75 74 74 74 73 72 72 73 73 73 73 73 73 73 73 73 72 67 69 74 75 74 76 76 76
66 68 70 76 77 77 77 76 76 74 75 75 75 75 74 75 75 74 73 73 72 71 70 70 68 68 69 70 71 72 72 72 72 73 73 69 66 74 74 75 75 75 75
64 65 72 77 77 76 76 77 77 76 76 75 75 75 74 73 73 72 71 70 70 70 69 69 69 70 71 70 70 70 70 71 73 72 73 73 73 73 75 75 75 75 75
64 67 75 77 77 76 76 77 75 75 75 74 73 73 72 71 71 71 71 71 71 71 71 72 72 73 73 73 74 73 72 71 71 69 72 73 73 75 76 74 76 75 75
67 70 73 77 77 77 76 76 75 74 74 73 73 72 72 72 71 71 71 72 73 74 74 74 74 74 74 74 74 74 74 73 70 68 70 73 73 75 76 76 76 76 75
68 69 72 76 77 77 76 75 75 75 74 74 73 73 72 72 73 73 74 74 74 74 75 75 75 75 75 75 75 76 76 75 70 70 71 71 73 75 76 77 77 77 76
65 67 69 71 74 75 75 75 75 74 74 74 73 73 73 73 74 74 75 75 75 76 76 76 76 77 77 77 77 77 77 76 73 72 70 73 75 76 76 77 77 76 77
62 64 67 70 70 71 71 75 75 74 74 73 73 73 74 74 75 75 77 77 77 77 77 77 77 78 77 77 78 78 77 76 73 71 72 72 75 76 76 77 76 77 76
60 62 64 65 69 69 69 72 75 74 74 74 73 74 75 72 73 75 75 77 77 77 77 78 78 78 77 77 77 78 78 74 72 73 72 75 76 77 76 76 77 76 77
60 61 62 63 64 66 64 72 71 69 70 71 70 74 73 73 75 73 76 78 78 77 75 78 77 77 77 75 75 76 74 72 71 72 73 76 77 77 76 76 76 76 76
59 60 61 63 66 63 68 72 67 68 70 72 76 77 74 74 75 74 75 74 77 77 73 74 67 75 74 75 74 75 74 73 71 71 73 77 77 75 75 75 74 74 75
59 60 61 64 69 65 65 66 66 65 68 69 71 76 76 76 74 76 75 74 77 74 75 73 72 74 75 75 74 74 74 73 68 71 75 77 76 75 74 75 75 75 75
61 62 63 68 74 76 75 71 73 71 69 67 73 74 74 73 73 76 76 76 76 76 75 74 74 74 73 73 74 73 73 72 72 72 73 77 76 76 75 75 75 75 76
62 62 61 68 73 74 76 77 75 72 72 70 69 72 76 77 75 76 76 76 77 75 74 75 77 76 75 72 73 72 72 72 72 70 73 75 77 77 77 76 76 76 76
63 63 62 67 70 74 76 75 75 72 65 69 69 74 76 77 78 78 75 76 76 75 76 76 77 69 72 72 72 72 71 72 73 72 72 72 76 77 77 77 77 75 75
61 65 66 63 69 73 74 74 71 69 70 68 69 72 75 76 78 78 76 75 76 75 75 76 74 73 69 70 72 72 69 71 72 73 72 71 72 72 77 77 76 75 74
63 67 68 69 69 72 75 73 72 71 71 71 69 71 76 75 75 77 73 74 74 73 72 73 69 73 73 72 72 71 69 72 73 70 69 72 73 73 74 77 76 75 74
62 66 68 69 73 73 72 73 70 69 70 70 70 72 76 76 74 76 74 74 76 73 74 75 73 74 73 72 71 72 68 70 73 73 72 68 73 73 73 73 74 73 75
60 67 69 70 74 72 71 69 69 67 69 69 68 75 77 74 76 76 74 74 73 75 73 71 72 74 75 72 72 66 66 69 70 68 71 71 72 73 73 73 73 73 73
61 67 70 70 74 72 70 70 70 70 68 68 70 73 75 75 76 74 75 75 73 74 65 67 73 75 72 73 73 68 66 67 68 67 68 71 72 72 72 74 74 74 72
62 66 70 71 73 72 72 72 73 73 72 72 71 72 72 74 74 76 78 73 77 73 65 73 72 75 74 73 74 72 66 64 64 68 67 69 72 71 71 73 75 74 74
61 66 70 72 73 73 74 74 73 69 68 69 73 70 71 74 75 74 78 79 80 78 73 72 71 76 76 73 74 71 73 68 66 63 69 66 68 71 73 74 73 75 76
59 64 68 72 73 73 74 75 74 73 70 70 69 72 74 77 75 75 76 79 80 76 73 67 64 75 76 75 73 72 72 73 69 71 67 69 70 71 73 73 73 73 75
59 61 65 72 73 74 75 74 75 76 72 71 71 72 71 72 71 74 75 79 79 78 71 66 63 71 76 77 76 76 73 70 72 72 69 68 69 69 70 72 72 74 74
Lifted_Index
-2 -2 -3 -3 -3 -4 -4 -4 -4 -3 -3 -3 -4 -4 -3 -3 -3 -4 -4 -4 -4 -4 -4 -4 -5 -5 -5 -5 -5 -5 -5 -5 -6 -6 -6 -6 -7 -7 -7 -7 -7 -6 -6
-1 -2 -3 -3 -3 -4 -4 -4 -4 -3 -3 -3 -3 -3 -3 -3 -3 -4 -4 -4 -4 -4 -4 -4 -4 -4 -5 -5 -5 -5 -5 -5 -5 -6 -5 -5 -6 -6 -7 -7 -7 -6 -6
-1 -1 -2 -3 -3 -3 -4 -4 -3 -3 -3 -3 -3 -3 -3 -3 -3 -4 -4 -4 -4 -4 -3 -3 -3 -3 -4 -4 -5 -5 -5 -5 -5 -5 -4 -3 -4 -5 -6 -6 -7 -6 -6
-0 -1 -2 -3 -3 -4 -4 -4 -3 -3 -3 -3 -3 -3 -3 -3 -3 -3 -3 -3 -3 -3 -2 -2 -2 -2 -3 -3 -3 -4 -4 -5 -5 -5 -4 -2 -3 -5 -6 -6 -6 -6 -6
-0 -1 -2 -3 -4 -4 -4 -4 -3 -3 -3 -3 -3 -3 -2 -2 -2 -2 -2 -2 -2 -2 -1 -1 -2 -2 -2 -2 -2 -3 -3 -4 -4 -4 -4 -3 -4 -5 -5 -6 -6 -6 -6
-1 -1 -3 -4 -4 -3 -3 -3 -3 -3 -2 -2 -2 -2 -2 -2 -2 -2 -2 -2 -2 -2 -2 -2 -2 -3 -3 -3 -3 -3 -3 -3 -3 -3 -3 -4 -4 -4 -5 -6 -6 -6 -5
-1 -2 -3 -3 -3 -3 -3 -3 -2 -2 -2 -2 -2 -2 -1 -1 -1 -1 -2 -2 -2 -3 -3 -3 -3 -4 -4 -4 -4 -3 -3 -3 -3 -3 -3 -4 -4 -4 -5 -6 -6 -6 -6
-2 -2 -2 -3 -3 -3 -3 -2 -2 -2 -2 -2 -2 -2 -2 -2 -2 -2 -2 -3 -3 -4 -4 -4 -4 -4 -4 -4 -4 -4 -4 -4 -3 -3 -3 -3 -3 -4 -5 -6 -6 -6 -6
-1 -1 -2 -2 -2 -2 -2 -2 -2 -2 -2 -2 -2 -2 -2 -2 -2 -3 -3 -4 -4 -4 -5 -5 -5 -5 -5 -5 -5 -5 -4 -4 -4 -4 -4 -3 -4 -4 -5 -5 -5 -5 -5
0 0 -0 -1 -1 -1 -1 -2 -2 -2 -1 -2 -2 -2 -2 -2 -3 -3 -4 -4 -5 -5 -5 -6 -6 -6 -6 -6 -6 -5 -5 -5 -4 -4 -4 -4 -4 -4 -5 -5 -5 -5 -5
1 1 0 0 -0 -0 -1 -1 -1 -1 -1 -1 -2 -2 -2 -2 -3 -3 -4 -5 -5 -5 -5 -5 -6 -6 -6 -5 -5 -5 -5 -5 -4 -4 -4 -4 -4 -4 -5 -5 -5 -5 -5
0 0 0 0 0 0 -0 -1 -1 -1 -1 -1 -2 -2 -3 -3 -3 -4 -4 -4 -5 -4 -4 -4 -5 -5 -5 -4 -4 -5 -5 -5 -5 -4 -4 -4 -5 -5 -5 -4 -4 -4 -4
0 0 -0 -0 -0 -0 -1 -1 -1 -0 -1 -2 -2 -3 -3 -3 -3 -3 -4 -4 -4 -4 -3 -4 -4 -4 -4 -4 -4 -5 -5 -5 -4 -4 -4 -4 -4 -4 -4 -4 -4 -4 -4
0 -0 -0 -1 -1 -1 -1 -1 -1 -1 -1 -1 -3 -3 -3 -3 -3 -3 -3 -4 -4 -4 -4 -4 -4 -4 -5 -5 -5 -5 -5 -5 -4 -4 -4 -4 -4 -4 -4 -4 -4 -4 -4
0 -0 -0 -1 -2 -2 -1 -1 -1 -1 -1 -1 -2 -3 -3 -3 -3 -3 -4 -4 -4 -4 -4 -4 -4 -5 -5 -5 -5 -5 -5 -4 -4 -4 -4 -4 -4 -4 -4 -4 -4 -4 -4
-0 -0 -1 -2 -2 -3 -2 -2 -2 -1 -1 -1 -2 -3 -4 -3 -3 -3 -4 -4 -4 -5 -5 -5 -5 -5 -5 -5 -5 -5 -4 -4 -4 -4 -4 -4 -4 -4 -5 -5 -4 -4 -4
-1 -1 -1 -2 -2 -3 -3 -3 -2 -2 -1 -1 -2 -3 -4 -4 -4 -4 -4 -4 -4 -5 -5 -5 -4 -3 -3 -4 -5 -4 -4 -4 -4 -5 -5 -4 -5 -5 -5 -5 -4 -4 -3
-1 -1 -1 -1 -2 -3 -3 -3 -2 -2 -1 -1 -2 -3 -4 -4 -4 -4 -4 -4 -4 -4 -4 -4 -4 -3 -2 -3 -4 -4 -3 -3 -4 -5 -5 -5 -5 -5 -5 -5 -4 -3 -3
-0 -1 -1 -1 -2 -3 -3 -3 -2 -2 -2 -2 -2 -3 -4 -4 -4 -4 -4 -3 -3 -3 -3 -3 -3 -3 -3 -4 -4 -4 -3 -4 -4 -4 -4 -5 -5 -5 -5 -5 -4 -3 -2
-0 -1 -1 -1 -2 -3 -3 -2 -2 -2 -2 -2 -2 -3 -4 -4 -3 -3 -3 -3 -3 -3 -3 -2 -2 -3 -4 -4 -4 -4 -3 -3 -3 -3 -3 -4 -5 -6 -6 -5 -4 -3 -3
-1 -1 -2 -2 -2 -2 -2 -2 -2 -2 -2 -2 -2 -3 -4 -4 -3 -3 -3 -3 -3 -3 -2 -1 -2 -3 -4 -5 -4 -3 -2 -2 -2 -2 -2 -3 -5 -6 -6 -6 -5 -4 -4
-1 -2 -3 -3 -3 -3 -3 -2 -2 -2 -2 -2 -2 -3 -4 -4 -3 -3 -3 -3 -3 -2 -2 -1 -2 -3 -4 -5 -5 -3 -2 -1 -1 -1 -0 -2 -4 -5 -6 -6 -6 -5 -4
-2 -3 -4 -4 -4 -3 -3 -3 -3 -3 -3 -2 -2 -3 -3 -3 -3 -4 -4 -4 -4 -3 -2 -1 -2 -3 -4 -4 -5 -4 -2 -1 0 0 -0 -1 -3 -4 -5 -6 -6 -5 -5
-2 -3 -4 -5 -5 -4 -4 -4 -4 -3 -3 -3 -2 -2 -3 -3 -4 -4 -5 -5 -5 -4 -3 -2 -2 -3 -4 -4 -4 -4 -3 -2 -1 -1 -1 -1 -2 -4 -5 -6 -6 -6 -5
-2 -3 -4 -5 -5 -5 -5 -5 -5 -4 -4 -3 -3 -3 -3 -4 -4 -4 -5 -6 -6 -5 -4 -2 -2 -3 -4 -4 -4 -4 -4 -4 -4 -3 -2 -2 -3 -5 -6 -6 -6 -6 -6
-2 -3 -4 -5 -6 -6 -6 -6 -6 -5 -4 -4 -3 -3 -3 -4 -4 -4 -5 -6 -7 -6 -5 -2 -1 -3 -4 -4 -5 -4 -4 -4 -5 -4 -4 -3 -4 -5 -6 -6 -6 -7 -7